• Em Portugal
  • Lista de países
  • Para 7 dias
  • Temperatura da água
  • Mapas de satélite
  • Mapa do tempo
  • Widgets de tempo
  • user-avatar
    Iniciar Sessão

    Previsão horária em Tebriz

    Hoje, 25 Setembro, Segunda-feira

    Tempo Temperatura Precipitação Vento Pressão Humidade
    00:00 +19°C° 0 mm 3 m/s 648 mmHg 71%
    01:00 +18°C° 0 mm 2 m/s 648 mmHg 74%
    02:00 +18°C° 0 mm 2 m/s 647 mmHg 76%
    03:00 +18°C° 0 mm 2 m/s 647 mmHg 78%
    04:00 +18°C° 0 mm 2 m/s 647 mmHg 80%
    05:00 +17°C° 0 mm 2 m/s 647 mmHg 81%
    06:00 +17°C° 0 mm 2 m/s 647 mmHg 82%
    07:00 +18°C° 0 mm 2 m/s 648 mmHg 72%
    08:00 +20°C° 0 mm 2 m/s 648 mmHg 63%
    09:00 +21°C° 0 mm 2 m/s 649 mmHg 53%
    10:00 +23°C° 0,1 mm 1 m/s 649 mmHg 46%
    11:00 +25°C° 0,1 mm 1 m/s 649 mmHg 38%
    12:00 +26°C° 0,1 mm 1 m/s 649 mmHg 30%
    13:00 +26°C° 0 mm 1 m/s 649 mmHg 28%
    14:00 +27°C° 0 mm 1 m/s 649 mmHg 25%
    15:00 +27°C° 0 mm 2 m/s 649 mmHg 23%
    16:00 +26°C° 0,1 mm 2 m/s 648 mmHg 26%
    17:00 +25°C° 0,1 mm 2 m/s 648 mmHg 29%
    18:00 +24°C° 0,1 mm 3 m/s 648 mmHg 32%
    19:00 +22°C° 0,2 mm 3 m/s 648 mmHg 39%
    20:00 +21°C° 0,2 mm 3 m/s 648 mmHg 46%
    21:00 +20°C° 0,2 mm 3 m/s 648 mmHg 52%
    22:00 +19°C° 0,1 mm 3 m/s 648 mmHg 56%
    23:00 +19°C° 0,1 mm 3 m/s 648 mmHg 60%

    Amanhã, 26 Setembro, Terça-feira

    Tempo Temperatura Precipitação Vento Pressão Humidade
    00:00 +18°C° 0,1 mm 2 m/s 647 mmHg 63%
    01:00 +18°C° 0 mm 2 m/s 647 mmHg 65%
    02:00 +17°C° 0 mm 2 m/s 647 mmHg 67%
    03:00 +17°C° 0 mm 2 m/s 647 mmHg 70%
    04:00 +16°C° 0 mm 2 m/s 647 mmHg 71%
    05:00 +16°C° 0 mm 2 m/s 647 mmHg 72%
    06:00 +16°C° 0 mm 2 m/s 646 mmHg 73%
    07:00 +18°C° 0 mm 1 m/s 647 mmHg 63%
    08:00 +20°C° 0 mm 1 m/s 647 mmHg 54%
    09:00 +22°C° 0 mm 1 m/s 648 mmHg 44%
    10:00 +23°C° 0 mm 1 m/s 648 mmHg 38%
    11:00 +25°C° 0 mm 1 m/s 648 mmHg 32%
    12:00 +26°C° 0 mm 1 m/s 648 mmHg 26%
    13:00 +26°C° 0 mm 1 m/s 648 mmHg 24%
    14:00 +27°C° 0 mm 2 m/s 648 mmHg 22%
    15:00 +27°C° 0 mm 2 m/s 647 mmHg 20%
    16:00 +26°C° 0 mm 2 m/s 647 mmHg 22%
    17:00 +25°C° 0 mm 2 m/s 647 mmHg 24%
    18:00 +24°C° 0 mm 2 m/s 646 mmHg 26%
    19:00 +23°C° 0 mm 2 m/s 646 mmHg 32%
    20:00 +21°C° 0 mm 2 m/s 646 mmHg 38%
    21:00 +20°C° 0 mm 2 m/s 646 mmHg 44%
    22:00 +20°C° 0 mm 2 m/s 646 mmHg 49%
    23:00 +19°C° 0 mm 2 m/s 646 mmHg 53%

    Depois de amanhã, 27 Setembro, Quarta-feira

    Tempo Temperatura Precipitação Vento Pressão Humidade
    00:00 +18°C° 0 mm 2 m/s 646 mmHg 58%
    01:00 +18°C° 0 mm 2 m/s 646 mmHg 60%
    02:00 +17°C° 0 mm 2 m/s 645 mmHg 62%
    03:00 +17°C° 0 mm 2 m/s 645 mmHg 64%
    04:00 +17°C° 0 mm 2 m/s 645 mmHg 66%
    05:00 +16°C° 0 mm 2 m/s 645 mmHg 67%
    06:00 +16°C° 0 mm 2 m/s 645 mmHg 69%
    07:00 +18°C° 0 mm 2 m/s 645 mmHg 59%
    08:00 +21°C° 0 mm 1 m/s 646 mmHg 50%
    09:00 +23°C° 0 mm 1 m/s 647 mmHg 41%
    10:00 +25°C° 0 mm 2 m/s 647 mmHg 33%
    11:00 +26°C° 0 mm 3 m/s 647 mmHg 26%
    12:00 +28°C° 0 mm 4 m/s 647 mmHg 18%
    13:00 +28°C° 0 mm 5 m/s 647 mmHg 16%
    14:00 +29°C° 0 mm 6 m/s 646 mmHg 14%
    15:00 +29°C° 0 mm 7 m/s 646 mmHg 13%
    16:00 +28°C° 0 mm 6 m/s 646 mmHg 16%
    17:00 +26°C° 0 mm 6 m/s 646 mmHg 20%
    18:00 +25°C° 0 mm 5 m/s 645 mmHg 24%
    19:00 +23°C° 0 mm 5 m/s 645 mmHg 31%
    20:00 +22°C° 0 mm 4 m/s 645 mmHg 38%
    21:00 +20°C° 0 mm 4 m/s 645 mmHg 45%
    22:00 +19°C° 0 mm 3 m/s 645 mmHg 51%
    23:00 +19°C° 0 mm 3 m/s 645 mmHg 56%

    28 Setembro, Quinta-feira

    Tempo Temperatura Precipitação Vento Pressão Humidade
    00:00 +18°C° 0 mm 2 m/s 645 mmHg 62%
    01:00 +17°C° 0 mm 2 m/s 645 mmHg 65%
    02:00 +17°C° 0 mm 2 m/s 645 mmHg 68%
    03:00 +16°C° 0 mm 2 m/s 645 mmHg 71%
    04:00 +16°C° 0 mm 2 m/s 645 mmHg 73%
    05:00 +15°C° 0 mm 2 m/s 645 mmHg 74%
    06:00 +15°C° 0 mm 2 m/s 645 mmHg 76%
    07:00 +17°C° 0 mm 2 m/s 646 mmHg 68%
    08:00 +18°C° 0 mm 2 m/s 646 mmHg 59%
    09:00 +20°C° 0 mm 2 m/s 647 mmHg 51%
    10:00 +21°C° 0 mm 2 m/s 647 mmHg 44%
    11:00 +23°C° 0 mm 2 m/s 647 mmHg 38%
    12:00 +24°C° 0 mm 1 m/s 647 mmHg 31%
    13:00 +25°C° 0 mm 2 m/s 647 mmHg 29%
    14:00 +25°C° 0 mm 2 m/s 647 mmHg 26%
    15:00 +26°C° 0 mm 2 m/s 647 mmHg 24%
    16:00 +24°C° 0 mm 3 m/s 647 mmHg 29%
    17:00 +22°C° 0 mm 4 m/s 647 mmHg 33%
    18:00 +21°C° 0 mm 4 m/s 646 mmHg 38%
    19:00 +20°C° 0 mm 5 m/s 647 mmHg 46%
    20:00 +17°C° 0 mm 5 m/s 647 mmHg 53%
    21:00 +16°C° 0 mm 5 m/s 647 mmHg 61%
    22:00 +16°C° 0 mm 5 m/s 647 mmHg 63%
    23:00 +15°C° 0 mm 4 m/s 647 mmHg 65%

    29 Setembro, Sexta-feira

    Tempo Temperatura Precipitação Vento Pressão Humidade
    00:00 +15°C° 0 mm 4 m/s 647 mmHg 67%
    01:00 +14°C° 0 mm 4 m/s 647 mmHg 69%
    02:00 +14°C° 0 mm 3 m/s 647 mmHg 71%
    03:00 +14°C° 0 mm 3 m/s 646 mmHg 73%
    04:00 +13°C° 0 mm 3 m/s 647 mmHg 74%
    05:00 +13°C° 0 mm 3 m/s 647 mmHg 76%
    06:00 +13°C° 0 mm 3 m/s 647 mmHg 77%
    07:00 +14°C° 0 mm 3 m/s 647 mmHg 69%
    08:00 +17°C° 0 mm 3 m/s 647 mmHg 62%
    09:00 +18°C° 0 mm 3 m/s 648 mmHg 54%
    10:00 +20°C° 0 mm 3 m/s 648 mmHg 47%
    11:00 +21°C° 0 mm 2 m/s 648 mmHg 40%
    12:00 +23°C° 0 mm 2 m/s 647 mmHg 34%
    13:00 +24°C° 0 mm 2 m/s 647 mmHg 31%
    14:00 +24°C° 0 mm 2 m/s 647 mmHg 28%
    15:00 +25°C° 0 mm 2 m/s 646 mmHg 25%
    16:00 +24°C° 0 mm 2 m/s 646 mmHg 27%
    17:00 +23°C° 0 mm 2 m/s 646 mmHg 30%
    18:00 +21°C° 0 mm 2 m/s 646 mmHg 32%
    19:00 +20°C° 0 mm 3 m/s 646 mmHg 39%
    20:00 +19°C° 0 mm 3 m/s 645 mmHg 47%
    21:00 +18°C° 0 mm 3 m/s 645 mmHg 54%
    22:00 +18°C° 0 mm 3 m/s 645 mmHg 55%
    23:00 +17°C° 0 mm 3 m/s 645 mmHg 57%

    30 Setembro, Sábado

    Tempo Temperatura Precipitação Vento Pressão Humidade
    00:00 +17°C° 0 mm 3 m/s 645 mmHg 58%
    01:00 +17°C° 0 mm 3 m/s 644 mmHg 60%
    02:00 +16°C° 0 mm 3 m/s 644 mmHg 62%
    03:00 +16°C° 0 mm 2 m/s 644 mmHg 64%
    04:00 +16°C° 0,2 mm 2 m/s 644 mmHg 66%
    05:00 +15°C° 0,2 mm 2 m/s 644 mmHg 67%
    06:00 +15°C° 0,2 mm 2 m/s 643 mmHg 69%
    07:00 +17°C° 0,1 mm 3 m/s 644 mmHg 60%
    08:00 +19°C° 0,1 mm 3 m/s 644 mmHg 52%
    09:00 +21°C° 0,1 mm 3 m/s 644 mmHg 44%
    10:00 +23°C° 0 mm 5 m/s 644 mmHg 36%
    11:00 +26°C° 0 mm 7 m/s 644 mmHg 27%
    12:00 +29°C° 0 mm 10 m/s 644 mmHg 19%
    13:00 +29°C° 0 mm 10 m/s 644 mmHg 17%
    14:00 +29°C° 0 mm 11 m/s 644 mmHg 15%
    15:00 +29°C° 0 mm 12 m/s 643 mmHg 13%
    16:00 +28°C° 0 mm 10 m/s 644 mmHg 15%
    17:00 +26°C° 0 mm 8 m/s 644 mmHg 17%
    18:00 +23°C° 0 mm 5 m/s 644 mmHg 19%
    19:00 +22°C° 0 mm 5 m/s 644 mmHg 23%
    20:00 +21°C° 0 mm 4 m/s 644 mmHg 27%
    21:00 +20°C° 0 mm 3 m/s 644 mmHg 31%
    22:00 +19°C° 0 mm 3 m/s 644 mmHg 33%
    23:00 +18°C° 0 mm 2 m/s 644 mmHg 35%
    Mostrar mais